Year,Month,Day,Hour,Minute,Value (Times are PST for temperature in C)
2015,06,23,00,00,14.60
2015,06,23,00,01,14.60
2015,06,23,00,02,14.60
2015,06,23,00,03,14.60
2015,06,23,00,04,14.60
2015,06,23,00,05,14.60
2015,06,23,00,06,14.60
2015,06,23,00,07,14.60
2015,06,23,00,08,14.60
2015,06,23,00,09,14.60
2015,06,23,00,10,14.60
2015,06,23,00,11,14.60
2015,06,23,00,12,14.60
2015,06,23,00,13,14.50
2015,06,23,00,14,14.50
2015,06,23,00,15,14.40
2015,06,23,00,16,14.40
2015,06,23,00,17,14.40
2015,06,23,00,18,14.40
2015,06,23,00,19,14.40
2015,06,23,00,20,14.50
2015,06,23,00,21,14.60
2015,06,23,00,22,14.60
2015,06,23,00,23,14.60
2015,06,23,00,24,14.70
2015,06,23,00,25,14.70
2015,06,23,00,26,14.70
2015,06,23,00,27,14.70
2015,06,23,00,28,14.70
2015,06,23,00,29,14.80
2015,06,23,00,30,14.80
2015,06,23,00,31,14.80
2015,06,23,00,32,14.80
2015,06,23,00,33,14.80
2015,06,23,00,34,14.70
2015,06,23,00,35,14.70
2015,06,23,00,36,14.70
2015,06,23,00,37,14.60
2015,06,23,00,38,14.60
2015,06,23,00,39,14.50
2015,06,23,00,40,14.50
2015,06,23,00,41,14.40
2015,06,23,00,42,14.40
2015,06,23,00,43,14.30
2015,06,23,00,44,14.30
2015,06,23,00,45,14.30
2015,06,23,00,46,14.20
2015,06,23,00,47,14.20
2015,06,23,00,48,14.20
2015,06,23,00,49,14.20
2015,06,23,00,50,14.20
2015,06,23,00,51,14.10
2015,06,23,00,52,14.10
2015,06,23,00,53,14.10
2015,06,23,00,54,14.10
2015,06,23,00,55,14.10
2015,06,23,00,56,14.10
2015,06,23,00,57,14.00
2015,06,23,00,58,13.90
2015,06,23,00,59,13.80
2015,06,23,01,00,13.80
2015,06,23,01,01,13.70
2015,06,23,01,02,13.60
2015,06,23,01,03,13.50
2015,06,23,01,04,13.50
2015,06,23,01,05,13.40
2015,06,23,01,06,13.40
2015,06,23,01,07,13.40
2015,06,23,01,08,13.30
2015,06,23,01,09,13.30
2015,06,23,01,10,13.30
2015,06,23,01,11,13.30
2015,06,23,01,12,13.20
2015,06,23,01,13,13.20
2015,06,23,01,14,13.20
2015,06,23,01,15,13.20
2015,06,23,01,16,13.20
2015,06,23,01,17,13.20
2015,06,23,01,18,13.20
2015,06,23,01,19,13.20
2015,06,23,01,20,13.30
2015,06,23,01,21,13.30
2015,06,23,01,22,13.40
2015,06,23,01,23,13.40
2015,06,23,01,24,13.40
2015,06,23,01,25,13.50
2015,06,23,01,26,13.60
2015,06,23,01,27,13.60
2015,06,23,01,28,13.60
2015,06,23,01,29,13.50
2015,06,23,01,30,13.50
2015,06,23,01,31,13.50
2015,06,23,01,32,13.50
2015,06,23,01,33,13.50
2015,06,23,01,34,13.50
2015,06,23,01,35,13.50
2015,06,23,01,36,13.40
2015,06,23,01,37,13.40
2015,06,23,01,38,13.30
2015,06,23,01,39,13.20
2015,06,23,01,40,13.20
2015,06,23,01,41,13.10
2015,06,23,01,42,13.10
2015,06,23,01,43,13.10
2015,06,23,01,44,13.10
2015,06,23,01,45,13.00
2015,06,23,01,46,13.00
2015,06,23,01,47,13.00
2015,06,23,01,48,13.00
2015,06,23,01,49,13.00
2015,06,23,01,50,13.00
2015,06,23,01,51,13.00
2015,06,23,01,52,13.00
2015,06,23,01,53,13.10
2015,06,23,01,54,13.10
2015,06,23,01,55,13.10
2015,06,23,01,56,13.10
2015,06,23,01,57,13.10
2015,06,23,01,58,13.10
2015,06,23,01,59,13.10
2015,06,23,02,00,13.10
2015,06,23,02,01,13.10
2015,06,23,02,02,13.00
2015,06,23,02,03,13.00
2015,06,23,02,04,13.10
2015,06,23,02,05,13.10
2015,06,23,02,06,13.10
2015,06,23,02,07,13.10
2015,06,23,02,08,13.10
2015,06,23,02,09,13.10
2015,06,23,02,10,13.10
2015,06,23,02,11,13.10
2015,06,23,02,12,13.10
2015,06,23,02,13,13.10
2015,06,23,02,14,13.10
2015,06,23,02,15,13.10
2015,06,23,02,16,13.10
2015,06,23,02,17,13.10
2015,06,23,02,18,13.10
2015,06,23,02,19,13.10
2015,06,23,02,20,13.00
2015,06,23,02,21,13.00
2015,06,23,02,22,12.90
2015,06,23,02,23,12.90
2015,06,23,02,24,12.90
2015,06,23,02,25,12.80
2015,06,23,02,26,12.80
2015,06,23,02,27,12.80
2015,06,23,02,28,12.80
2015,06,23,02,29,12.80
2015,06,23,02,30,12.80
2015,06,23,02,31,12.80
2015,06,23,02,32,12.80
2015,06,23,02,33,12.80
2015,06,23,02,34,12.80
2015,06,23,02,35,12.80
2015,06,23,02,36,12.90
2015,06,23,02,37,12.90
2015,06,23,02,38,12.80
2015,06,23,02,39,12.80
2015,06,23,02,40,12.80
2015,06,23,02,41,12.70
2015,06,23,02,42,12.70
2015,06,23,02,43,12.60
2015,06,23,02,44,12.60
2015,06,23,02,45,12.50
2015,06,23,02,46,12.40
2015,06,23,02,47,12.40
2015,06,23,02,48,12.30
2015,06,23,02,49,12.20
2015,06,23,02,50,12.20
2015,06,23,02,51,12.10
2015,06,23,02,52,12.10
2015,06,23,02,53,12.10
2015,06,23,02,54,12.00
2015,06,23,02,55,12.00
2015,06,23,02,56,12.00
2015,06,23,02,57,11.90
2015,06,23,02,58,11.90
2015,06,23,02,59,11.90
2015,06,23,03,00,11.90
2015,06,23,03,01,11.90
2015,06,23,03,02,11.90
2015,06,23,03,03,11.90
2015,06,23,03,04,11.90
2015,06,23,03,05,11.90
2015,06,23,03,06,11.90
2015,06,23,03,07,11.90
2015,06,23,03,08,12.00
2015,06,23,03,09,12.00
2015,06,23,03,10,12.00
2015,06,23,03,11,12.10
2015,06,23,03,12,12.10
2015,06,23,03,13,12.10
2015,06,23,03,14,12.00
2015,06,23,03,15,12.00
2015,06,23,03,16,11.90
2015,06,23,03,17,11.90
2015,06,23,03,18,11.90
2015,06,23,03,19,11.90
2015,06,23,03,20,11.90
2015,06,23,03,21,11.90
2015,06,23,03,22,11.90
2015,06,23,03,23,11.90
2015,06,23,03,24,11.90
2015,06,23,03,25,11.90
2015,06,23,03,26,11.90
2015,06,23,03,27,11.90
2015,06,23,03,28,12.00
2015,06,23,03,29,12.10
2015,06,23,03,30,12.10
2015,06,23,03,31,12.10
2015,06,23,03,32,12.10
2015,06,23,03,33,12.10
2015,06,23,03,34,12.10
2015,06,23,03,35,12.00
2015,06,23,03,36,12.00
2015,06,23,03,37,11.90
2015,06,23,03,38,11.90
2015,06,23,03,39,11.80
2015,06,23,03,40,11.80
2015,06,23,03,41,11.90
2015,06,23,03,42,11.90
2015,06,23,03,43,12.00
2015,06,23,03,44,12.00
2015,06,23,03,45,12.00
2015,06,23,03,46,12.00
2015,06,23,03,47,12.00
2015,06,23,03,48,11.90
2015,06,23,03,49,11.90
2015,06,23,03,50,11.90
2015,06,23,03,51,11.80
2015,06,23,03,52,11.80
2015,06,23,03,53,11.70
2015,06,23,03,54,11.70
2015,06,23,03,55,11.70
2015,06,23,03,56,11.70
2015,06,23,03,57,11.80
2015,06,23,03,58,11.80
2015,06,23,03,59,11.80
2015,06,23,04,00,11.80
2015,06,23,04,01,11.80
2015,06,23,04,02,11.80
2015,06,23,04,03,11.80
2015,06,23,04,04,11.80
2015,06,23,04,05,11.70
2015,06,23,04,06,11.70
2015,06,23,04,07,11.60
2015,06,23,04,08,11.60
2015,06,23,04,09,11.50
2015,06,23,04,10,11.40
2015,06,23,04,11,11.30
2015,06,23,04,12,11.20
2015,06,23,04,13,11.20
2015,06,23,04,14,11.10
2015,06,23,04,15,11.10
2015,06,23,04,16,11.10
2015,06,23,04,17,11.10
2015,06,23,04,18,11.10
2015,06,23,04,19,11.10
2015,06,23,04,20,11.00
2015,06,23,04,21,11.00
2015,06,23,04,22,11.00
2015,06,23,04,23,10.90
2015,06,23,04,24,10.90
2015,06,23,04,25,10.90
2015,06,23,04,26,10.90
2015,06,23,04,27,10.90
2015,06,23,04,28,10.90
2015,06,23,04,29,10.90
2015,06,23,04,30,10.90
2015,06,23,04,31,10.90
2015,06,23,04,32,10.90
2015,06,23,04,33,11.00
2015,06,23,04,34,11.00
2015,06,23,04,35,11.00
2015,06,23,04,36,11.10
2015,06,23,04,37,11.10
2015,06,23,04,38,11.10
2015,06,23,04,39,11.20
2015,06,23,04,40,11.20
2015,06,23,04,41,11.20
2015,06,23,04,42,11.20
2015,06,23,04,43,11.20
2015,06,23,04,44,11.20
2015,06,23,04,45,11.10
2015,06,23,04,46,11.00
2015,06,23,04,47,10.90
2015,06,23,04,48,10.80
2015,06,23,04,49,10.80
2015,06,23,04,50,10.70
2015,06,23,04,51,10.70
2015,06,23,04,52,10.60
2015,06,23,04,53,10.60
2015,06,23,04,54,10.60
2015,06,23,04,55,10.60
2015,06,23,04,56,10.50
2015,06,23,04,57,10.50
2015,06,23,04,58,10.50
2015,06,23,04,59,10.50
2015,06,23,05,00,10.50
2015,06,23,05,01,10.60
2015,06,23,05,02,10.70
2015,06,23,05,03,10.70
2015,06,23,05,04,10.70
2015,06,23,05,05,10.80
2015,06,23,05,06,10.80
2015,06,23,05,07,10.80
2015,06,23,05,08,10.90
2015,06,23,05,09,11.00
2015,06,23,05,10,11.10
2015,06,23,05,11,11.10
2015,06,23,05,12,11.10
2015,06,23,05,13,11.20
2015,06,23,05,14,11.30
2015,06,23,05,15,11.30
2015,06,23,05,16,11.30
2015,06,23,05,17,11.30
2015,06,23,05,18,11.30
2015,06,23,05,19,11.20
2015,06,23,05,20,11.20
2015,06,23,05,21,11.20
2015,06,23,05,22,11.10
2015,06,23,05,23,11.10
2015,06,23,05,24,11.10
2015,06,23,05,25,11.10
2015,06,23,05,26,11.00
2015,06,23,05,27,11.00
2015,06,23,05,28,11.00
2015,06,23,05,29,11.00
2015,06,23,05,30,11.00
2015,06,23,05,31,10.90
2015,06,23,05,32,10.90
2015,06,23,05,33,10.90
2015,06,23,05,34,10.80
2015,06,23,05,35,10.80
2015,06,23,05,36,10.80
2015,06,23,05,37,10.80
2015,06,23,05,38,10.80
2015,06,23,05,39,10.70
2015,06,23,05,40,10.70
2015,06,23,05,41,10.70
2015,06,23,05,42,10.70
2015,06,23,05,43,10.70
2015,06,23,05,44,10.80
2015,06,23,05,45,10.80
2015,06,23,05,46,10.80
2015,06,23,05,47,10.80
2015,06,23,05,48,10.80
2015,06,23,05,49,10.90
2015,06,23,05,50,10.90
2015,06,23,05,51,10.90
2015,06,23,05,52,11.00
2015,06,23,05,53,11.00
2015,06,23,05,54,11.00
2015,06,23,05,55,11.00
2015,06,23,05,56,11.00
2015,06,23,05,57,11.00
2015,06,23,05,58,11.10
2015,06,23,05,59,11.10
2015,06,23,06,00,11.20
2015,06,23,06,01,11.20
2015,06,23,06,02,11.20
2015,06,23,06,03,11.20
2015,06,23,06,04,11.10
2015,06,23,06,05,11.10
2015,06,23,06,06,11.10
2015,06,23,06,07,11.10
2015,06,23,06,08,11.10
2015,06,23,06,09,11.10
2015,06,23,06,10,11.10
2015,06,23,06,11,11.20
2015,06,23,06,12,11.20
2015,06,23,06,13,11.20
2015,06,23,06,14,11.20
2015,06,23,06,15,11.30
2015,06,23,06,16,11.30
2015,06,23,06,17,11.40
2015,06,23,06,18,11.40
2015,06,23,06,19,11.50
2015,06,23,06,20,11.60
2015,06,23,06,21,11.60
2015,06,23,06,22,11.70
2015,06,23,06,23,11.80
2015,06,23,06,24,11.90
2015,06,23,06,25,12.00
2015,06,23,06,26,12.10
2015,06,23,06,27,12.10
2015,06,23,06,28,12.20
2015,06,23,06,29,12.30
2015,06,23,06,30,12.40
2015,06,23,06,31,12.40
2015,06,23,06,32,12.50
2015,06,23,06,33,12.50
2015,06,23,06,34,12.60
2015,06,23,06,35,12.60
2015,06,23,06,36,12.70
2015,06,23,06,37,12.70
2015,06,23,06,38,12.80
2015,06,23,06,39,12.90
2015,06,23,06,40,13.00
2015,06,23,06,41,13.10
2015,06,23,06,42,13.20
2015,06,23,06,43,13.30
2015,06,23,06,44,13.50
2015,06,23,06,45,13.70
2015,06,23,06,46,13.80
2015,06,23,06,47,14.00
2015,06,23,06,48,14.20
2015,06,23,06,49,14.30
2015,06,23,06,50,14.50
2015,06,23,06,51,14.60
2015,06,23,06,52,14.80
2015,06,23,06,53,14.90
2015,06,23,06,54,15.00
2015,06,23,06,55,15.00
2015,06,23,06,56,15.10
2015,06,23,06,57,15.20
2015,06,23,06,58,15.30
2015,06,23,06,59,15.40
2015,06,23,07,00,15.40
2015,06,23,07,01,15.50
2015,06,23,07,02,15.60
2015,06,23,07,03,15.60
2015,06,23,07,04,15.70
2015,06,23,07,05,15.70
2015,06,23,07,06,15.80
2015,06,23,07,07,15.80
2015,06,23,07,08,15.80
2015,06,23,07,09,15.80
2015,06,23,07,10,15.90
2015,06,23,07,11,15.90
2015,06,23,07,12,15.90
2015,06,23,07,13,15.90
2015,06,23,07,14,15.80
2015,06,23,07,15,15.90
2015,06,23,07,16,15.80
2015,06,23,07,17,15.80
2015,06,23,07,18,15.80
2015,06,23,07,19,15.80
2015,06,23,07,20,15.80
2015,06,23,07,21,15.80
2015,06,23,07,22,15.90
2015,06,23,07,23,15.90
2015,06,23,07,24,15.90
2015,06,23,07,25,16.00
2015,06,23,07,26,16.00
2015,06,23,07,27,16.10
2015,06,23,07,28,16.10
2015,06,23,07,29,16.10
2015,06,23,07,30,16.20
2015,06,23,07,31,16.20
2015,06,23,07,32,16.20
2015,06,23,07,33,16.30
2015,06,23,07,34,16.30
2015,06,23,07,35,16.30
2015,06,23,07,36,16.30
2015,06,23,07,37,16.40
2015,06,23,07,38,16.40
2015,06,23,07,39,16.40
2015,06,23,07,40,16.40
2015,06,23,07,41,16.50
2015,06,23,07,42,16.50
2015,06,23,07,43,16.60
2015,06,23,07,44,16.70
2015,06,23,07,45,16.70
2015,06,23,07,46,16.70
2015,06,23,07,47,16.80
2015,06,23,07,48,16.80
2015,06,23,07,49,16.80
2015,06,23,07,50,16.80
2015,06,23,07,51,16.80
2015,06,23,07,52,16.90
2015,06,23,07,53,16.90
2015,06,23,07,54,17.00
2015,06,23,07,55,17.00
2015,06,23,07,56,17.00
2015,06,23,07,57,17.10
2015,06,23,07,58,17.10
2015,06,23,07,59,17.10
2015,06,23,08,00,17.10
2015,06,23,08,01,17.10
2015,06,23,08,02,17.10
2015,06,23,08,03,17.10
2015,06,23,08,04,17.20
2015,06,23,08,05,17.20
2015,06,23,08,06,17.20
2015,06,23,08,07,17.20
2015,06,23,08,08,17.20
2015,06,23,08,09,17.20
2015,06,23,08,10,17.30
2015,06,23,08,11,17.20
2015,06,23,08,12,17.20
2015,06,23,08,13,17.20
2015,06,23,08,14,17.10
2015,06,23,08,15,17.10
2015,06,23,08,16,17.10
2015,06,23,08,17,17.10
2015,06,23,08,18,17.20
2015,06,23,08,19,17.20
2015,06,23,08,20,17.20
2015,06,23,08,21,17.20
2015,06,23,08,22,17.20
2015,06,23,08,23,17.20
2015,06,23,08,24,17.20
2015,06,23,08,25,17.30
2015,06,23,08,26,17.40
2015,06,23,08,27,17.40
2015,06,23,08,28,17.40
2015,06,23,08,29,17.40
2015,06,23,08,30,17.50
2015,06,23,08,31,17.50
2015,06,23,08,32,17.60
2015,06,23,08,33,17.70
2015,06,23,08,34,17.80
2015,06,23,08,35,17.80
2015,06,23,08,36,18.00
2015,06,23,08,37,18.10
2015,06,23,08,38,18.20
2015,06,23,08,39,18.20
2015,06,23,08,40,18.20
2015,06,23,08,41,18.20
2015,06,23,08,42,18.20
2015,06,23,08,43,18.20
2015,06,23,08,44,18.20
2015,06,23,08,45,18.20
2015,06,23,08,46,18.10
2015,06,23,08,47,18.10
2015,06,23,08,48,18.20
2015,06,23,08,49,18.20
2015,06,23,08,50,18.20
2015,06,23,08,51,18.30
2015,06,23,08,52,18.40
2015,06,23,08,53,18.40
2015,06,23,08,54,18.50
2015,06,23,08,55,18.60
2015,06,23,08,56,18.60
2015,06,23,08,57,18.50
2015,06,23,08,58,18.40
2015,06,23,08,59,18.40
2015,06,23,09,00,18.40
2015,06,23,09,01,18.40
2015,06,23,09,02,18.40
2015,06,23,09,03,18.30
2015,06,23,09,04,18.30
2015,06,23,09,05,18.30
2015,06,23,09,06,18.30
2015,06,23,09,07,18.40
2015,06,23,09,08,18.50
2015,06,23,09,09,18.60
2015,06,23,09,10,18.70
2015,06,23,09,11,18.80
2015,06,23,09,12,18.90
2015,06,23,09,13,18.90
2015,06,23,09,14,18.90
2015,06,23,09,15,19.00
2015,06,23,09,16,19.10
2015,06,23,09,17,19.20
2015,06,23,09,18,19.30
2015,06,23,09,19,19.40
2015,06,23,09,20,19.50
2015,06,23,09,21,19.50
2015,06,23,09,22,19.50
2015,06,23,09,23,19.40
2015,06,23,09,24,19.40
2015,06,23,09,25,19.40
2015,06,23,09,26,19.30
2015,06,23,09,27,19.20
2015,06,23,09,28,19.10
2015,06,23,09,29,19.10
2015,06,23,09,30,19.10
2015,06,23,09,31,19.10
2015,06,23,09,32,19.10
2015,06,23,09,33,19.20
2015,06,23,09,34,19.30
2015,06,23,09,35,19.40
2015,06,23,09,36,19.50
2015,06,23,09,37,19.50
2015,06,23,09,38,19.60
2015,06,23,09,39,19.60
2015,06,23,09,40,19.60
2015,06,23,09,41,19.50
2015,06,23,09,42,19.50
2015,06,23,09,43,19.50
2015,06,23,09,44,19.60
2015,06,23,09,45,19.70
2015,06,23,09,46,19.80
2015,06,23,09,47,20.00
2015,06,23,09,48,20.00
2015,06,23,09,49,19.90
2015,06,23,09,50,19.70
2015,06,23,09,51,19.50
2015,06,23,09,52,19.40
2015,06,23,09,53,19.20
2015,06,23,09,54,19.00
2015,06,23,09,55,19.00
2015,06,23,09,56,18.90
2015,06,23,09,57,18.70
2015,06,23,09,58,18.60
2015,06,23,09,59,18.60
2015,06,23,10,00,18.60
2015,06,23,10,01,18.50
2015,06,23,10,02,18.40
2015,06,23,10,03,18.40
2015,06,23,10,04,18.40
2015,06,23,10,05,18.30
2015,06,23,10,06,18.30
2015,06,23,10,07,18.50
2015,06,23,10,08,18.50
2015,06,23,10,09,18.40
2015,06,23,10,10,18.30
2015,06,23,10,11,18.20
2015,06,23,10,12,18.10
2015,06,23,10,13,18.00
2015,06,23,10,14,18.00
2015,06,23,10,15,17.90
2015,06,23,10,16,18.00
2015,06,23,10,17,18.20
2015,06,23,10,18,18.40
2015,06,23,10,19,18.60
2015,06,23,10,20,18.70
2015,06,23,10,21,18.60
2015,06,23,10,22,18.60
2015,06,23,10,23,18.50
2015,06,23,10,24,18.30
2015,06,23,10,25,18.40
2015,06,23,10,26,18.40
2015,06,23,10,27,18.40
2015,06,23,10,28,18.40
2015,06,23,10,29,18.50
2015,06,23,10,30,18.50
2015,06,23,10,31,18.40
2015,06,23,10,32,18.40
2015,06,23,10,33,18.40
2015,06,23,10,34,18.40
2015,06,23,10,35,18.50
2015,06,23,10,36,18.60
2015,06,23,10,37,18.70
2015,06,23,10,38,18.70
2015,06,23,10,39,18.70
2015,06,23,10,40,18.60
2015,06,23,10,41,18.60
2015,06,23,10,42,18.70
2015,06,23,10,43,18.70
2015,06,23,10,44,18.70
2015,06,23,10,45,18.60
2015,06,23,10,46,18.60
2015,06,23,10,47,18.70
2015,06,23,10,48,18.60
2015,06,23,10,49,18.60
2015,06,23,10,50,18.60
2015,06,23,10,51,18.70
2015,06,23,10,52,18.80
2015,06,23,10,53,18.80
2015,06,23,10,54,18.90
2015,06,23,10,55,18.90
2015,06,23,10,56,19.00
2015,06,23,10,57,19.10
2015,06,23,10,58,19.20
2015,06,23,10,59,19.30
2015,06,23,11,00,19.20
2015,06,23,11,01,19.00
2015,06,23,11,02,18.90
2015,06,23,11,03,18.90
2015,06,23,11,04,19.10
2015,06,23,11,05,19.10
2015,06,23,11,06,19.00
2015,06,23,11,07,18.90
2015,06,23,11,08,18.90
2015,06,23,11,09,18.90
2015,06,23,11,10,19.00
2015,06,23,11,11,19.10
2015,06,23,11,12,19.20
2015,06,23,11,13,19.20
2015,06,23,11,14,19.30
2015,06,23,11,15,19.40
2015,06,23,11,16,19.40
2015,06,23,11,17,19.30
2015,06,23,11,18,19.30
2015,06,23,11,19,19.30
2015,06,23,11,20,19.30
2015,06,23,11,21,19.30
2015,06,23,11,22,19.10
2015,06,23,11,23,19.10
2015,06,23,11,24,19.10
2015,06,23,11,25,19.20
2015,06,23,11,26,19.30
2015,06,23,11,27,19.20
2015,06,23,11,28,19.20
2015,06,23,11,29,19.10
2015,06,23,11,30,19.10
2015,06,23,11,31,19.10
2015,06,23,11,32,19.10
2015,06,23,11,33,19.00
2015,06,23,11,34,19.10
2015,06,23,11,35,19.20
2015,06,23,11,36,19.30
2015,06,23,11,37,19.30
2015,06,23,11,38,19.30
2015,06,23,11,39,19.30
2015,06,23,11,40,19.20
2015,06,23,11,41,19.10
2015,06,23,11,42,19.00
2015,06,23,11,43,19.00
2015,06,23,11,44,19.00
2015,06,23,11,45,19.00
2015,06,23,11,46,19.00
2015,06,23,11,47,19.20
2015,06,23,11,48,19.20
2015,06,23,11,49,19.30
2015,06,23,11,50,19.40
2015,06,23,11,51,19.40
2015,06,23,11,52,19.40
2015,06,23,11,53,19.40
2015,06,23,11,54,19.40
2015,06,23,11,55,19.50
2015,06,23,11,56,19.50
2015,06,23,11,57,19.40
2015,06,23,11,58,19.50
2015,06,23,11,59,19.60
2015,06,23,12,00,19.70
2015,06,23,12,01,19.70
2015,06,23,12,02,19.90
2015,06,23,12,03,19.90
2015,06,23,12,04,19.80
2015,06,23,12,05,19.90
2015,06,23,12,06,19.80
2015,06,23,12,07,19.70
2015,06,23,12,08,19.70
2015,06,23,12,09,19.70
2015,06,23,12,10,19.70
2015,06,23,12,11,19.70
2015,06,23,12,12,19.60
2015,06,23,12,13,19.40
2015,06,23,12,14,19.40
2015,06,23,12,15,19.40
2015,06,23,12,16,19.40
2015,06,23,12,17,19.40
2015,06,23,12,18,19.40
2015,06,23,12,19,19.50
2015,06,23,12,20,19.50
2015,06,23,12,21,19.70
2015,06,23,12,22,19.70
2015,06,23,12,23,19.60
2015,06,23,12,24,19.60
2015,06,23,12,25,19.60
2015,06,23,12,26,19.50
2015,06,23,12,27,19.40
2015,06,23,12,28,19.50
2015,06,23,12,29,19.50
2015,06,23,12,30,19.60
2015,06,23,12,31,19.60
2015,06,23,12,32,19.70
2015,06,23,12,33,19.80
2015,06,23,12,34,19.80
2015,06,23,12,35,19.80
2015,06,23,12,36,19.70
2015,06,23,12,37,19.70
2015,06,23,12,38,19.70
2015,06,23,12,39,19.60
2015,06,23,12,40,19.70
2015,06,23,12,41,19.70
2015,06,23,12,42,19.70
2015,06,23,12,43,19.80
2015,06,23,12,44,19.90
2015,06,23,12,45,20.00
2015,06,23,12,46,20.00
2015,06,23,12,47,19.90
2015,06,23,12,48,19.90
2015,06,23,12,49,19.90
2015,06,23,12,50,19.80
2015,06,23,12,51,19.80
2015,06,23,12,52,19.80
2015,06,23,12,53,19.70
2015,06,23,12,54,19.80
2015,06,23,12,55,19.70
2015,06,23,12,56,19.70
2015,06,23,12,57,19.80
2015,06,23,12,58,19.80
2015,06,23,12,59,19.80
2015,06,23,13,00,19.90
2015,06,23,13,01,19.90
2015,06,23,13,02,20.00
2015,06,23,13,03,20.10
2015,06,23,13,04,20.20
2015,06,23,13,05,20.10
2015,06,23,13,06,20.10
2015,06,23,13,07,20.10
2015,06,23,13,08,20.10
2015,06,23,13,09,20.00
2015,06,23,13,10,20.00
2015,06,23,13,11,20.00
2015,06,23,13,12,20.00
2015,06,23,13,13,20.00
2015,06,23,13,14,20.10
2015,06,23,13,15,20.20
2015,06,23,13,16,20.10
2015,06,23,13,17,20.10
2015,06,23,13,18,20.00
2015,06,23,13,19,20.00
2015,06,23,13,20,20.10
2015,06,23,13,21,20.10
2015,06,23,13,22,20.20
2015,06,23,13,23,20.30
2015,06,23,13,24,20.40
2015,06,23,13,25,20.40
2015,06,23,13,26,20.30
2015,06,23,13,27,20.20
2015,06,23,13,28,20.10
2015,06,23,13,29,20.10
2015,06,23,13,30,20.20
2015,06,23,13,31,20.20
2015,06,23,13,32,20.20
2015,06,23,13,33,20.30
2015,06,23,13,34,20.30
2015,06,23,13,35,20.30
2015,06,23,13,36,20.30
2015,06,23,13,37,20.20
2015,06,23,13,38,20.10
2015,06,23,13,39,20.20
2015,06,23,13,40,20.20
2015,06,23,13,41,20.30
2015,06,23,13,42,20.50
2015,06,23,13,43,20.50
2015,06,23,13,44,20.60
2015,06,23,13,45,20.70
2015,06,23,13,46,20.60
2015,06,23,13,47,20.60
2015,06,23,13,48,20.50
2015,06,23,13,49,20.60
2015,06,23,13,50,20.60
2015,06,23,13,51,20.60
2015,06,23,13,52,20.60
2015,06,23,13,53,20.60
2015,06,23,13,54,20.60
2015,06,23,13,55,20.70
2015,06,23,13,56,20.70
2015,06,23,13,57,20.60
2015,06,23,13,58,20.60
2015,06,23,13,59,20.80
2015,06,23,14,00,21.00
2015,06,23,14,01,21.00
2015,06,23,14,02,20.90
2015,06,23,14,03,20.90
2015,06,23,14,04,20.90
2015,06,23,14,05,20.80
2015,06,23,14,06,20.80
2015,06,23,14,07,20.70
2015,06,23,14,08,20.80
2015,06,23,14,09,20.90
2015,06,23,14,10,20.80
2015,06,23,14,11,20.60
2015,06,23,14,12,20.60
2015,06,23,14,13,20.60
2015,06,23,14,14,20.60
2015,06,23,14,15,20.60
2015,06,23,14,16,20.60
2015,06,23,14,17,20.70
2015,06,23,14,18,20.80
2015,06,23,14,19,20.90
2015,06,23,14,20,20.90
2015,06,23,14,21,21.00
2015,06,23,14,22,21.00
2015,06,23,14,23,20.90
2015,06,23,14,24,20.90
2015,06,23,14,25,20.80
2015,06,23,14,26,20.80
2015,06,23,14,27,20.70
2015,06,23,14,28,20.70
2015,06,23,14,29,20.60
2015,06,23,14,30,20.60
2015,06,23,14,31,20.60
2015,06,23,14,32,20.70
2015,06,23,14,33,20.90
2015,06,23,14,34,20.90
2015,06,23,14,35,21.00
2015,06,23,14,36,20.90
2015,06,23,14,37,20.80
2015,06,23,14,38,20.80
2015,06,23,14,39,20.90
2015,06,23,14,40,21.00
2015,06,23,14,41,21.00
2015,06,23,14,42,21.00
2015,06,23,14,43,20.90
2015,06,23,14,44,20.80
2015,06,23,14,45,20.80
2015,06,23,14,46,20.80
2015,06,23,14,47,20.80
2015,06,23,14,48,20.90
2015,06,23,14,49,20.90
2015,06,23,14,50,21.00
2015,06,23,14,51,21.00
2015,06,23,14,52,21.10
2015,06,23,14,53,21.20
2015,06,23,14,54,21.20
2015,06,23,14,55,21.30
2015,06,23,14,56,21.30
2015,06,23,14,57,21.30
2015,06,23,14,58,21.20
2015,06,23,14,59,21.10
2015,06,23,15,00,21.10
2015,06,23,15,01,21.20
2015,06,23,15,02,21.20
2015,06,23,15,03,21.20
2015,06,23,15,04,21.10
2015,06,23,15,05,21.20
2015,06,23,15,06,21.30
2015,06,23,15,07,21.30
2015,06,23,15,08,21.40
2015,06,23,15,09,21.40
2015,06,23,15,10,21.60
2015,06,23,15,11,21.80
2015,06,23,15,12,21.80
2015,06,23,15,13,21.80
2015,06,23,15,14,21.90
2015,06,23,15,15,21.90
2015,06,23,15,16,21.80
2015,06,23,15,17,21.50
2015,06,23,15,18,21.30
2015,06,23,15,19,21.30
2015,06,23,15,20,21.40
2015,06,23,15,21,21.40
2015,06,23,15,22,21.50
2015,06,23,15,23,21.60
2015,06,23,15,24,21.60
2015,06,23,15,25,21.50
2015,06,23,15,26,21.50
2015,06,23,15,27,21.40
2015,06,23,15,28,21.50
2015,06,23,15,29,21.50
2015,06,23,15,30,21.70
2015,06,23,15,31,21.80
2015,06,23,15,32,21.80
2015,06,23,15,33,21.80
2015,06,23,15,34,21.90
2015,06,23,15,35,22.00
2015,06,23,15,36,22.10
2015,06,23,15,37,22.10
2015,06,23,15,38,22.00
2015,06,23,15,39,21.90
2015,06,23,15,40,21.80
2015,06,23,15,41,21.80
2015,06,23,15,42,21.80
2015,06,23,15,43,21.80
2015,06,23,15,44,21.90
2015,06,23,15,45,22.00
2015,06,23,15,46,22.00
2015,06,23,15,47,22.00
2015,06,23,15,48,22.10
2015,06,23,15,49,22.00
2015,06,23,15,50,22.00
2015,06,23,15,51,22.00
2015,06,23,15,52,22.10
2015,06,23,15,53,22.10
2015,06,23,15,54,22.00
2015,06,23,15,55,22.00
2015,06,23,15,56,22.00
2015,06,23,15,57,22.00
2015,06,23,15,58,22.10
2015,06,23,15,59,22.10
2015,06,23,16,00,22.10
2015,06,23,16,01,22.10
2015,06,23,16,02,22.10
2015,06,23,16,03,22.20
2015,06,23,16,04,22.20
2015,06,23,16,05,22.20
2015,06,23,16,06,22.10
2015,06,23,16,07,22.10
2015,06,23,16,08,22.00
2015,06,23,16,09,21.90
2015,06,23,16,10,22.00
2015,06,23,16,11,22.10
2015,06,23,16,12,22.10
2015,06,23,16,13,22.20
2015,06,23,16,14,22.30
2015,06,23,16,15,22.60
2015,06,23,16,16,22.70
2015,06,23,16,17,22.60
2015,06,23,16,18,22.60
2015,06,23,16,19,22.50
2015,06,23,16,20,22.60
2015,06,23,16,21,22.60
2015,06,23,16,22,22.60
2015,06,23,16,23,22.70
2015,06,23,16,24,22.70
2015,06,23,16,25,22.70
2015,06,23,16,26,22.70
2015,06,23,16,27,22.70
2015,06,23,16,28,22.60
2015,06,23,16,29,22.50
2015,06,23,16,30,22.40
2015,06,23,16,31,22.40
2015,06,23,16,32,22.40
2015,06,23,16,33,22.50
2015,06,23,16,34,22.70
2015,06,23,16,35,22.90
2015,06,23,16,36,22.90
2015,06,23,16,37,22.80
2015,06,23,16,38,22.80
2015,06,23,16,39,22.80
2015,06,23,16,40,22.80
2015,06,23,16,41,22.70
2015,06,23,16,42,22.70
2015,06,23,16,43,22.70
2015,06,23,16,44,22.60
2015,06,23,16,45,22.60
2015,06,23,16,46,22.60
2015,06,23,16,47,22.60
2015,06,23,16,48,22.60
2015,06,23,16,49,22.60
2015,06,23,16,50,22.60
2015,06,23,16,51,22.50
2015,06,23,16,52,22.50
2015,06,23,16,53,22.50
2015,06,23,16,54,22.50
2015,06,23,16,55,22.50
2015,06,23,16,56,22.40
2015,06,23,16,57,22.40
2015,06,23,16,58,22.40
2015,06,23,16,59,22.40
2015,06,23,17,00,22.30
2015,06,23,17,01,22.30
2015,06,23,17,02,22.40
2015,06,23,17,03,22.50
2015,06,23,17,04,22.50
2015,06,23,17,05,22.50
2015,06,23,17,06,22.50
2015,06,23,17,07,22.60
2015,06,23,17,08,22.60
2015,06,23,17,09,22.70
2015,06,23,17,10,22.70
2015,06,23,17,11,22.70
2015,06,23,17,12,22.70
2015,06,23,17,13,22.70
2015,06,23,17,14,22.80
2015,06,23,17,15,22.80
2015,06,23,17,16,22.80
2015,06,23,17,17,22.80
2015,06,23,17,18,22.70
2015,06,23,17,19,22.60